www.pogodaiklimat.ru

Погода и климат >> Архив погоды >> Доминиканская Республика >> Barahona


ПОГОДА в Barahona

  • Прогноз погоды в Barahona
  • Монитор погоды в Barahona
  • Климат города

АРХИВ ПОГОДЫ в Barahona

Время (UTC), дата Ветер
(напр.,м/с)
 
Видим.   Явления Облачность Т
(С)
Тd
(С)
f
(%)
Тe
(С)
Тes
(С)
Комфортность P
(гПа)
Po
(гПа)
Тmin
(С)
Tmax
(С)
R
(мм)
R24
(мм)
S
(см)
00 19.02 Ю 5 16 км 8/3 540 м
[Sc Ac trans Cs]
+25.0 +20.8 78 +31 +31 очень
душно
1018.7 1019.0 +17.4 +31.2
12 19.02 ЮЗ 3 12 км дымка {туман} 1/1 480 м
[Cu med, cong Ac trans]
+20.0 +18.5 91 +23 +24 комфорт 1020.8 1021.0 +19.0 +31.2
15 19.02 ЮВ 6 16 км {туман} 1/1 720 м
[Cu med, cong]
+28.8 +19.0 55 +34 +39 очень
душно
1022.2 1022.0
18 19.02 ЮВ 10 16 км {туман} 1/1 720 м
[Cu med, cong]
+29.2 +20.8 61 +36 +37 очень
душно
1019.8 1020.0 +19.0 +30.2
21 19.02 ЮВ 9 16 км 1/1 720 м
[Cu med, cong]
+28.6 +20.8 63 +36 +36 очень
душно
1018.7 1019.0
00 20.02 ЮВ 6 16 км 1/1 600 м
[Sc]
+26.2 +21.3 74 +33 +33 очень
душно
1019.8 1020.0 +19.0 +30.2
12 20.02 В 6 16 км 3/1 660 м
[Sc Ac trans Ci fib]
+26.0 +17.4 59 +30 +30 душно 1021.2 1021.0 +22.5 +30.2
15 20.02 ЮВ 10 16 км 1/1 750 м
[Cu med, cong Ac trans Ci fib]
+29.4 +18.0 50 +34 +34 очень
душно
1022.4 1022.0
18 20.02 ЮВ 9 16 км 1/1 750 м
[Cu med, cong Ac trans Ci fib]
+31.4 +20.1 51 +38 +39 очень
душно
1019.8 1020.0 +22.5 +32.0
21 20.02 ЮВ 9 16 км 3/3 720 м
[Cu med, cong Ac trans Ci fib]
+29.8 +21.5 61 +38 +38 очень
душно
1018.2 1018.0
12 21.02 штиль 0 16 км 4/3 480 м
[Sc Ac trans Ci fib]
+20.6 +17.3 81 +24 +25 комфорт 1021.7 1022.0 +20.4 +32.0
15 21.02 ЮВ 5 16 км 5/4 660 м
[Cb cap Ac trans Ci fib]
+29.0 +19.6 57 +35 +39 очень
душно
1023.4 1023.0
18 21.02 ЮВ 9 16 км 4/4 800 м
[Cu med, cong Ci fib]
+30.6 +20.5 55 +38 +38 очень
душно
1021.0 1021.0 +20.4 +31.2
21 21.02 ЮВ 8 16 км 4/3 720 м
[Cu med, cong Ac trans Ci fib]
+29.0 +20.6 61 +36 +36 очень
душно
1019.4 1019.0
00 22.02 ЮВ 6 16 км 5/4 600 м
[Cb cap Ac As Ci fib]
+25.8 +20.4 72 +32 +32 очень
душно
1020.7 1021.0 +20.4 +31.2
12 22.02 штиль 0 16 км 1/1 480 м
[Sc Ac trans Ci fib]
+19.8 +17.4 86 +22 +24 комфорт 1022.0 1022.0 +19.5 +31.2
15 22.02 СЗ 6 16 км 1/1 700 м
[Cu med, cong]
+28.7 +18.2 53 +33 +38 очень
душно
1023.0 1023.0
18 22.02 ЮВ 9 16 км 3/1 750 м
[Cu med, cong]
+30.0 +19.2 52 +35 +37 очень
душно
1021.0 1021.0 +19.5 +30.1
21 22.02 ЮВ 9 16 км 1/1 750 м
[Cu med, cong]
+28.2 +19.0 57 +33 +34 очень
душно
1018.7 1019.0
12 23.02 штиль 0 16 км 8/3 480 м
[Cu Sc Ac und]
+19.7 +16.5 82 +22 +23 комфорт 1021.4 1021.0 +30.4
15 23.02 ЮВ 8 16 км 8/1 660 м
[Cu med, cong Ac und]
+26.6 +18.5 61 +31 +32 душно 1022.0 1022.0
18 23.02 ЮВ 9 16 км 4/1 700 м
[Cu med, cong Ac trans]
+29.8 +19.7 55 +27 +28 жарко 1019.2 1019.0 +18.5 +30.1
21 23.02 ЮВ 9 600 м 5/3 630 м
[Cb cap Ac trans]
+27.5 +20.5 66 +34 +34 очень
душно
1016.8 1017.0
00 24.02 ЮВ 6 16 км 5/3 630 м
[Cu Sc Ac trans]
+25.8 +21.6 78 +33 +33 очень
душно
1017.8 1018.0 +18.5 +30.1
12 24.02 З 2 15 км дымка 4/1 480 м
[Cu med, cong Ac trans]
+18.5 +16.5 88 +20 +21 1018.7 1019.0 +17.5 +30.1
15 24.02 ЮВ 6 16 км {туман} 4/1 700 м
[Cu med, cong Ac trans]
+28.6 +18.7 55 +34 +38 очень
душно
1020.0 1020.0
18 24.02 СВ 6 16 км {туман} 3/3 750 м
[Cu med, cong Ac trans]
+29.5 +19.7 56 +36 +40 очень
душно
1017.4 1017.0 +17.5 +30.0
21 24.02 Ю 6 16 км 5/4 630 м
[Cu med, cong Ac trans Ci fib]
+27.5 +21.8 71 +35 +36 очень
душно
1016.9 1017.0
00 25.02 ЮВ 5 16 км 6/4 540 м
[Sc Ac trans Cs]
+25.0 +20.5 76 +31 +31 очень
душно
1017.4 1017.0 +17.5 +30.6
12 25.02 З 3 12 км дымка {туман} 1/1 540 м
[Cu med, cong]
+19.5 +17.5 88 +22 +23 комфорт 1018.9 1019.0 +17.8 +30.6
15 25.02 В 4 16 км {туман} 3/3 720 м
[Cu med, cong Ac trans]
+27.5 +18.0 56 +32 +39 очень
душно
1020.2 1020.0
18 25.02 В 8 16 км {туман} 4/3 660 м
[Cu med, cong Ac trans]
+30.0 +24.0 70 +41 +43 опасность
перегрева
1017.9 1018.0 +17.8 +30.6

 

Местоположение метеостанции Barahona (Доминиканская Республика): широта 18.20 долгота -71.10 высота над уровнем моря 3 м.

В архиве по умолчанию представлена погода в Barahona за последнюю неделю. Архивные данные за месяц целиком и за предыдущие месяцы, начиная с января 2011 года, Вы можете получить, выбрав интересующий диапазон дат из раскрывающегося списка и нажав кнопку "Ввод!".

Внимание! Время в таблицах - всемирное. Для получения местного времени необходимо прибавить поправку, которая в Barahona равна -4 ч.

Смотрите также архив погоды в соседних городах и на ближайших метеорологических станциях:

Погода в Santo Domingo (Доминиканская Республика) (131 км)
Погода в Santiago (Доминиканская Республика) (145 км)
Погода в Las Americas (Доминиканская Республика) (154 км)
Погода в Puerto Plata (Доминиканская Республика) (182 км)
Погода в Sabana De La Mar (Доминиканская Республика) (204 км)
Погода в La Romana Int Airport (Доминиканская Республика) (232 км)
Погода в Punta Cana (Доминиканская Республика) (292 км)
Погода в Punta de Maisi (Куба) (393 км)
Погода в Santiago de Cuba (Куба) (537 км)
Погода в Punta Lucrecia (Куба) (570 км)

Пояснения к столбцам:

Ветер - указаны скорость ветра в м/с - средняя за 10 мин, порывы в срок и между сроками (в фигурных скобках) и направление, откуда дует ветер: С - северный, СВ - северо-восточный, В - восточный, ЮВ - юго-восточный, Ю - южный, ЮЗ - юго-западный, З - западный, СЗ - северо-западный.
Видимость - горизонтальная дальность видимости в метрах или километрах. При видимости от 1 до 10 км при отсутствии осадков обычно наблюдается дымка, при ухудшении видимости до 1 км и менее - туман. В сухую погоду видимость может ухудшаться дымом, пылью или мглою.
Явления - указаны атмосферные явления, наблюдавшиеся в срок или в последний час перед сроком; фигурными скобками обозначены явления, наблюдавшиеся между сроками (за 1-3 часа до срока); квадратными скобками обозначены град или гололедные отложения с указанием их диаметра в мм.
Облачность - указаны через наклонную черту общая и нижняя облачность в баллах и высота нижней границы облаков в метрах; квадратными скобками обозначены формы облаков: Ci - перистые, Cs - перисто-слоистые, Cc - перисто-кучевые, Ac - высококучевые, As - высокослоистые, Sc - слоисто-кучевые, Ns - слоисто-дождевые, Cu - кучевые, Cb - кучево-дождевые. Подробнее классификацию облаков см. в Атласе облаков (PDF).
T - Температура воздуха - температура, измеренная на высоте 2 м над землей.
Td - Температура точки росы - температура, при понижении до которой содержащийся в воздухе водяной пар достигнет насыщения.
f - Относительная влажность воздуха - влажноcть воздуха, измеренная на высоте 2 м над землей.
Te - Эффективная температура - температура, которую ощущает одетый по сезону человек в тени. Характеристика душности погоды. При расчете учитывается влияние влажности воздуха и скорости ветра на теплоощущения человека.
Tes - Эффективная температура на солнце - температура, которую ощущает человек, с поправкой на солнечный нагрев. Характеристика знойности погоды. Зависит от высоты солнца над горизонтом, облачности и скорости ветра. Ночью, в пасмурную погоду, а также при ветре 12 м/с и более поправка равна нулю.
P - Атмосферное давление - приведенное к уровню моря атмосферное давление.
Po - Атмосферное давление - измеренное на уровне метеостанции атмосферное давление.
Tmin - Минимальная температура - минимум температуры воздуха на высоте 2 м над землей.
Tmax - Максимальная температура - максимум температуры воздуха на высоте 2 м над землей.
R - Количество осадков - Количество выпавших осадков за период времени, мм. При наведении курсора мыши на число - период времени, за который выпало указанное количество осадков.
R24 - Количество осадков - Количество выпавших осадков за 24 часа, мм.
S - Снежный покров - Высота снежного покрова, см. При наведении курсора мыши на число - состояние снежного покрова и степень покрытия местности в баллах.